Location: Gorze? G�rny
(49.8500°N, 19.5000°E)
Time: 13:00:25
(UTC+00:00)

Cosmos 2154 Rocket - Pass Details

Date: 13 May 2021
Orbit: 965 x 997 km, 82.9° (Epoch: 22 June)

Event Time Altitude Azimuth Distance (km) Brightness Sun altitude
Rises 20:05:54 0° 351° (N) 3,723 8.2 -13.7°
Reaches altitude 10° 20:08:28 10° 353° (N) 2,766 7.4 -14.0°
Maximum altitude 20:14:49 75° 79° (E) 1,024 4.0 -14.6°
Enters shadow 20:19:20 20° 163° (SSE) 2,092 5.2 -15.0°
